Location: Burtsch�tz
(51.0528°N, 12.1764°E)
Time: 07:36:58
(UTC+00:00)

Cosmos 2369 - Pass Details

Date: 29 October 2020
Orbit: 841 x 854 km, 71.0° (Epoch: 01 December)

Event Time Altitude Azimuth Distance (km) Brightness Sun altitude
Rises 18:28:31 0° 214° (SW) 3,411 7.2 -25.3°
Reaches altitude 10° 18:30:59 10° 216° (SW) 2,478 6.4 -25.7°
Maximum altitude 18:36:40 73° 301° (WNW) 891 3.8 -26.6°
Enters shadow 18:39:18 33° 20° (NNE) 1,392 4.7 -27.0°
